Find Starlink 11330

NORAD ID: 62011 Int'l Des: 2024-213 Owner: SPXS Country: US Constellation: starlink operational
LEOCIRCULAR

Current View

Loading 3D Globe...

About Starlink 11330

Starlink 11330 (NORAD 62011) is a starlink constellation satellite (v2 mini d2c) launched Nov 18, 2024 by SPXS of US. It operates in LEO, CIRCULAR orbit with a mass of 960.00 kg.

About Starlink 11330

Description loading...

Upcoming Passes

Passes for default location (London). Set your location on the main map for personalized predictions.

Altitude History

Loading altitude history...

Two-Line Element Set

1 62011U 24213D 26174.89990887 .00158386 00000-0 12853-2 0 9992
2 62011 53.1568 237.9086 0001450 71.9505 288.1671 15.69748128 91590
Epoch: Jun 23, 2026 • Age: 13 hours

Current Status

Altitude 363.7 km
Velocity 7.69 km/s
Sub-Earth Point -14.85°S, 5.93°W
Launch Date Nov 18, 2024
Age 1.5 years
Type internet

Technical Details

Classification Payload
Mass 960.00 kg
Dry Mass 910.00 kg
Total Mass 960.00 kg
Length 0.30 m
Diameter 4.10 m
Span 29.00 m
Shape Box + pan
Manufacturer SPXS
Bus Type Starlink V2MD
Phase Status In Orbit
Owner/State SPXS/US

Most Searched